Location: Pedholt
(56.0260°N, 10.2097°E)
Time: 23:16:30
(UTC+00:00)

SR - Pass Details

Date: 04 August 2021
Orbit: 581 x 874 km, 66.7° (Epoch: 26 September)

Event Time Altitude Azimuth Distance (km) Brightness Sun altitude
Rises 06:23:29 0° 238° (WSW) 3,403 ? 22.3°
Reaches altitude 10° 06:26:03 10° 243° (WSW) 2,440 ? 22.6°
Maximum altitude 06:31:37 58° 322° (NW) 924 ? 23.4°
Drops below altitude 10° 06:36:47 10° 42° (NE) 2,271 ? 24.1°
Sets 06:39:07 0° 46° (NE) 3,149 ? 24.4°
